Lewisburg, WV

3:46 PM EST on November 20, 2019 (GMT -0500)
Greenbrier Valley

Weather History for KLWB - September, 2019

Change the Weather History Date:

Saturday, September 7, 2019

  Actual Average Record
Temperature  
Mean Temperature 66 °F -  
Max Temperature 76 °F 79 °F 91 °F (2007)
Min Temperature 55 °F 54 °F 40 °F (1988)
Growing Degree Days 16 (Base 50)    
Moisture  
Dew Point 56 °F    
Average Humidity 76    
Maximum Humidity 99    
Minimum Humidity 44    
Precipitation  
Precipitation 0.00 in - - ()
Sea Level Pressure  
Sea Level Pressure 30.02 in    
Wind  
Wind Speed 3 mph (WNW)    
Max Wind Speed 10 mph    
Max Gust Speed -    
Visibility 10 miles    
Events      
Averages and records for this station are not official NWS values.
T = Trace of Precipitation, MM = Missing Value Source: NWS Daily Summary

Daily Weather History Graph

Daily Weather History Graph

Search for Another Location

Airport or City:

Astronomy

Sep. 07, 2019 Rise Set
Actual Time 6:56 AM EDT 7:42 PM EDT
Civil Twilight 6:29 AM EDT 8:08 PM EDT
Nautical Twilight 5:58 AM EDT 8:40 PM EDT
Astronomical Twilight 5:25 AM EDT 9:12 PM EDT
Moon 3:51 PM EDT (9/7) 12:51 AM EDT (9/7)
Length of Visible Light 13h 38m
Length of Day
12h 45m
Waxing Gibbous, 65% of the Moon is Illuminated
Sep 7
Waxing Gibbous
Sep 14
Full
Sep 21
Last Quarter
Sep 28
New
Oct 5
First Quarter

Hourly Weather History & Observations

Time (EDT) Temp. Dew Point Humidity Pressure Visibility Wind Dir Wind Speed Gust Speed Precip Events Conditions
12:15 AM 62.6 °F 57.4 °F 83% 29.96 in 10.0 mi West 3.5 mph - N/A   Scattered Clouds
12:35 AM 62.8 °F 57.2 °F 82% 29.96 in 10.0 mi West 3.5 mph - N/A   Scattered Clouds
12:55 AM 61.3 °F 57.0 °F 86% 29.96 in 10.0 mi West 3.5 mph - N/A   Mostly Cloudy
1:15 AM 59.9 °F 57.0 °F 90% 29.96 in 10.0 mi Calm Calm - N/A   Mostly Cloudy
1:35 AM 59.0 °F 56.5 °F 91% 29.96 in 10.0 mi Calm Calm - N/A   Scattered Clouds
1:55 AM 59.4 °F 56.8 °F 91% 29.96 in 10.0 mi West 3.5 mph - N/A   Scattered Clouds
2:15 AM 58.1 °F 55.4 °F 91% 29.96 in 10.0 mi Calm Calm - N/A   Scattered Clouds
2:35 AM 57.2 °F 56.1 °F 96% 29.95 in 10.0 mi Calm Calm - N/A   Scattered Clouds
2:55 AM 57.2 °F 55.6 °F 94% 29.96 in 10.0 mi Calm Calm - N/A   Scattered Clouds
3:15 AM 57.2 °F 56.5 °F 97% 29.95 in 10.0 mi Calm Calm - N/A   Scattered Clouds
3:35 AM 56.8 °F 55.6 °F 96% 29.95 in 10.0 mi Calm Calm - N/A   Scattered Clouds
3:55 AM 56.3 °F 55.4 °F 97% 29.96 in 10.0 mi Calm Calm - N/A   Clear
4:15 AM 56.7 °F 55.9 °F 97% 29.96 in 10.0 mi Calm Calm - N/A   Scattered Clouds
4:35 AM 56.3 °F 55.0 °F 96% 29.96 in 10.0 mi Calm Calm - N/A   Scattered Clouds
4:55 AM 55.4 °F 54.5 °F 97% 29.96 in 10.0 mi Calm Calm - N/A   Scattered Clouds
5:15 AM 55.0 °F 54.5 °F 98% 29.96 in 10.0 mi Calm Calm - N/A   Scattered Clouds
5:35 AM 55.8 °F 55.2 °F 98% 29.96 in 10.0 mi Calm Calm - N/A   Scattered Clouds
5:55 AM 55.6 °F 55.0 °F 98% 29.97 in 7.0 mi Calm Calm - N/A   Scattered Clouds
6:15 AM 55.8 °F 55.4 °F 99% 29.98 in 10.0 mi Calm Calm - N/A   Scattered Clouds
6:35 AM 56.3 °F 55.9 °F 99% 29.98 in 10.0 mi Calm Calm - N/A   Scattered Clouds
6:55 AM 55.2 °F 54.7 °F 98% 30.00 in 10.0 mi Calm Calm - N/A   Scattered Clouds
7:15 AM 55.4 °F 54.9 °F 98% 30.00 in 10.0 mi Calm Calm - N/A   Mostly Cloudy
7:35 AM 55.8 °F 55.4 °F 99% 30.01 in 10.0 mi Calm Calm - N/A   Mostly Cloudy
7:55 AM 57.6 °F 57.0 °F 98% 30.01 in 10.0 mi SSW 3.5 mph - N/A   Mostly Cloudy
8:15 AM 58.8 °F 58.1 °F 97% 30.02 in 10.0 mi Calm Calm - N/A   Overcast
8:35 AM 59.9 °F 58.5 °F 95% 30.02 in 10.0 mi SW 3.5 mph - N/A   Overcast
8:55 AM 61.2 °F 59.0 °F 93% 30.03 in 10.0 mi WSW 3.5 mph - N/A   Overcast
9:15 AM 62.2 °F 59.0 °F 89% 30.04 in 10.0 mi WSW 3.5 mph - N/A   Overcast
9:35 AM 63.5 °F 59.5 °F 87% 30.04 in 10.0 mi WSW 3.5 mph - N/A   Overcast
9:55 AM 65.1 °F 59.5 °F 82% 30.04 in 10.0 mi West 5.8 mph - N/A   Overcast
10:15 AM 66.7 °F 59.5 °F 78% 30.05 in 10.0 mi WNW 5.8 mph - N/A   Overcast
10:35 AM 66.6 °F 59.4 °F 78% 30.05 in 10.0 mi West 5.8 mph - N/A   Overcast
10:55 AM 67.6 °F 59.0 °F 74% 30.05 in 10.0 mi West 5.8 mph - N/A   Overcast
11:15 AM 68.9 °F 57.9 °F 68% 30.05 in 10.0 mi West 9.2 mph - N/A   Overcast
11:35 AM 68.9 °F 57.9 °F 68% 30.05 in 10.0 mi West 5.8 mph - N/A   Overcast
11:55 AM 70.5 °F 58.3 °F 65% 30.05 in 10.0 mi West 6.9 mph - N/A   Overcast
12:15 PM 70.5 °F 57.0 °F 62% 30.04 in 10.0 mi WNW 8.1 mph - N/A   Overcast
12:35 PM 72.5 °F 54.7 °F 53% 30.04 in 10.0 mi NW 9.2 mph - N/A   Mostly Cloudy
12:55 PM 70.9 °F 55.2 °F 58% 30.04 in 10.0 mi WNW 5.8 mph - N/A   Mostly Cloudy
1:15 PM 71.2 °F 54.7 °F 56% 30.04 in 10.0 mi NW 5.8 mph - N/A   Overcast
1:35 PM 71.8 °F 55.0 °F 55% 30.04 in 10.0 mi North 4.6 mph - N/A   Overcast
1:55 PM 73.2 °F 54.9 °F 52% 30.03 in 10.0 mi NNW 8.1 mph - N/A   Overcast
2:15 PM 73.6 °F 54.7 °F 51% 30.03 in 10.0 mi NW 3.5 mph - N/A   Mostly Cloudy
2:35 PM 75.2 °F 54.7 °F 49% 30.02 in 10.0 mi NNW 6.9 mph - N/A   Mostly Cloudy
2:55 PM 74.7 °F 54.1 °F 49% 30.02 in 10.0 mi West 8.1 mph - N/A   Mostly Cloudy
3:15 PM 74.8 °F 54.3 °F 49% 30.02 in 10.0 mi NW 8.1 mph - N/A   Mostly Cloudy
3:35 PM 74.5 °F 54.7 °F 50% 30.02 in 10.0 mi WNW 6.9 mph - N/A   Overcast
3:55 PM 75.4 °F 54.7 °F 48% 30.02 in 10.0 mi NW 5.8 mph - N/A   Overcast
4:15 PM 76.5 °F 53.2 °F 44% 30.01 in 10.0 mi WNW 5.8 mph - N/A   Mostly Cloudy
4:35 PM 74.3 °F 54.0 °F 49% 30.02 in 10.0 mi NW 10.4 mph - N/A   Overcast
4:55 PM 73.6 °F 53.6 °F 50% 30.02 in 10.0 mi NNW 5.8 mph - N/A   Scattered Clouds
5:15 PM 74.7 °F 54.0 °F 48% 30.02 in 10.0 mi NNW 10.4 mph - N/A   Mostly Cloudy
5:35 PM 72.9 °F 54.7 °F 53% 30.03 in 10.0 mi NW 5.8 mph - N/A   Scattered Clouds
5:55 PM 73.9 °F 54.5 °F 51% 30.03 in 10.0 mi NW 4.6 mph - N/A   Scattered Clouds
6:15 PM 73.9 °F 55.2 °F 52% 30.03 in 10.0 mi WNW 5.8 mph - N/A   Scattered Clouds
6:35 PM 73.4 °F 54.5 °F 51% 30.03 in 10.0 mi North 5.8 mph - N/A   Scattered Clouds
6:55 PM 72.7 °F 54.3 °F 52% 30.04 in 10.0 mi North 4.6 mph - N/A   Scattered Clouds
7:15 PM 71.6 °F 54.5 °F 55% 30.05 in 10.0 mi North 3.5 mph - N/A   Scattered Clouds
7:35 PM 70.2 °F 54.7 °F 58% 30.05 in 10.0 mi Calm Calm - N/A   Clear
7:55 PM 69.1 °F 54.7 °F 60% 30.06 in 10.0 mi Calm Calm - N/A   Clear
8:15 PM 68.7 °F 54.7 °F 61% 30.06 in 10.0 mi NW 3.5 mph - N/A   Scattered Clouds
8:35 PM 68.0 °F 55.0 °F 63% 30.07 in 10.0 mi Calm Calm - N/A   Scattered Clouds
8:55 PM 62.2 °F 54.9 °F 77% 30.07 in 10.0 mi Calm Calm - N/A   Clear
9:15 PM 61.5 °F 54.3 °F 77% 30.08 in 10.0 mi Calm Calm - N/A   Clear
9:35 PM 60.3 °F 55.2 °F 83% 30.09 in 10.0 mi Calm Calm - N/A   Clear
9:55 PM 62.8 °F 55.6 °F 77% 30.09 in 10.0 mi Calm Calm - N/A   Scattered Clouds
10:15 PM 59.0 °F 55.0 °F 87% 30.09 in 10.0 mi Calm Calm - N/A   Scattered Clouds
10:35 PM 57.4 °F 54.7 °F 91% 30.09 in 10.0 mi Calm Calm - N/A   Scattered Clouds
10:55 PM 57.6 °F 55.4 °F 92% 30.10 in 10.0 mi Calm Calm - N/A   Clear
11:15 PM 58.1 °F 54.9 °F 89% 30.10 in 10.0 mi NNE 3.5 mph - N/A   Clear
11:35 PM 57.2 °F 54.7 °F 91% 30.10 in 10.0 mi Calm Calm - N/A   Clear
11:55 PM 56.1 °F 54.9 °F 96% 30.09 in 10.0 mi Calm Calm - N/A   Clear